Vertical_Velocity
3 -1 0 -4 -1 -2 -3 -0 0 -0 -0 1 -2 2 0 -0 1 -0 -1 -2 -1 1 1 0 -4 1 -2 2 -0 1 -2 -0 2
2 0 1 0 0 -1 -0 -1 -1 -2 1 -1 1 -1 5 1 -0 -1 1 4 0 -1 0 0 1 1 -2 0 -3 2 -2 1 1
-4 2 -5 -2 -1 -1 0 -0 1 -2 1 1 3 -2 1 3 3 -0 -1 0 -0 0 1 1 1 1 -2 -1 -0 -0 -1 -1 -1
1 -2 -1 1 -1 -0 -2 -1 -3 -1 -2 3 1 2 -2 -3 -1 -2 -1 0 2 1 0 -1 1 -1 -1 -1 -1 -2 -0 -0 -0
1 3 1 0 -2 -0 2 -0 0 2 -0 2 4 -1 1 -3 -2 -2 -3 2 1 1 0 -1 -0 -2 1 -3 -2 1 -0 -1 1
-1 2 2 -0 -3 -2 -1 2 1 -1 -0 1 5 3 -4 3 -0 -1 -1 4 0 -2 0 -1 0 -2 -1 1 -0 -1 -2 -2 -0
7 1 1 0 -3 -4 4 6 -0 -3 -3 1 2 -2 -1 1 -1 -1 -1 5 4 0 2 4 0 0 -0 -3 -3 -1 -2 -3 1
-1 -5 -6 -1 2 4 4 2 -3 -0 0 -1 5 -6 0 1 -2 -1 0 3 2 1 2 3 0 -0 -0 -1 -1 -0 -0 -0 -2
-1 0 -2 -3 -2 2 8 0 -1 -6 1 1 -2 0 -0 1 -4 -0 -1 -0 -0 -0 6 0 -1 -1 1 1 1 -0 -1 1 1
1 2 2 1 4 2 -4 -0 -3 1 -0 5 -1 1 -0 1 -3 -1 -1 -1 0 1 1 2 -1 -1 -2 -0 -1 -0 -1 0 -2
1 3 2 0 0 1 0 -4 3 1 -6 -1 -1 3 -2 -1 1 -1 0 -2 -1 -1 0 2 5 -1 -1 -1 -2 -1 -1 -1 -1
-0 1 3 2 1 -2 2 4 6 -3 -4 -1 0 2 1 0 2 1 -1 0 -2 -2 -1 -0 9 2 -1 -1 -0 -0 -1 -1 -0
-0 0 2 4 1 3 -2 1 2 2 -2 -2 1 -1 1 2 1 -1 1 -3 -1 -0 -0 1 0 8 -0 -1 -1 0 -0 0 -1
2 0 -0 0 2 -1 5 -1 1 -0 0 0 1 -1 -2 -1 -0 -2 1 1 -3 -0 -1 0 -1 -1 1 6 -2 -0 -1 -1 -1
2 1 1 -0 1 1 1 -1 1 -1 3 -2 -4 -0 -1 -1 0 0 -0 -0 -1 -5 -1 -2 -1 -1 -0 5 4 6 -0 0 2
3 1 -0 1 3 0 -2 1 1 -0 1 0 -1 -3 0 -1 -1 1 3 -0 0 -0 -2 -1 -3 -2 0 2 9 2 0 -0 -2
0 -1 1 2 3 2 2 0 1 -1 -0 -2 -0 -3 -2 -3 -2 -0 -3 -5 -2 -0 3 -2 -2 -2 -1 2 3 9 -2 1 -1
1 -0 -1 -1 -3 0 4 5 2 2 2 1 -0 -1 -2 -2 -0 -0 0 1 -2 -1 0 -2 -3 -1 -0 -2 7 4 -0 1 2
-3 1 0 1 1 0 -2 -1 0 3 1 3 1 -2 2 -2 -4 -1 1 1 -2 2 -1 -2 -3 -1 -1 -2 3 9 6 1 1
-2 -1 0 1 1 2 1 1 -0 0 -0 1 1 4 6 1 2 -7 -8 -2 0 0 -1 0 -0 -2 -1 -1 -2 -4 4 2 1
Height
1563 1563 1563 1564 1564 1564 1564 1565 1565 1565 1566 1567 1568 1568 1568 1569 1569 1569 1570 1571 1571 1572 1573 1574 1574 1575 1576 1577 1576 1576 1576 1577 1576
1564 1564 1563 1564 1565 1565 1565 1566 1566 1567 1568 1569 1570 1570 1570 1570 1571 1571 1572 1573 1573 1574 1575 1576 1576 1577 1577 1578 1578 1578 1579 1579 1579
1564 1564 1564 1565 1564 1564 1565 1566 1566 1568 1569 1570 1571 1572 1571 1572 1571 1572 1573 1574 1574 1575 1576 1577 1577 1577 1578 1580 1580 1580 1581 1581 1581
1563 1563 1563 1564 1564 1564 1565 1566 1567 1568 1570 1570 1571 1572 1572 1572 1573 1573 1574 1575 1576 1576 1577 1577 1578 1578 1580 1581 1580 1581 1581 1582 1582
1561 1562 1562 1562 1563 1564 1565 1566 1567 1568 1570 1571 1571 1572 1572 1573 1574 1575 1576 1576 1576 1577 1577 1578 1578 1579 1580 1581 1581 1582 1582 1583 1582
1560 1560 1561 1561 1563 1564 1565 1566 1567 1566 1570 1571 1570 1571 1573 1575 1575 1575 1576 1577 1576 1577 1577 1578 1579 1579 1580 1581 1581 1582 1582 1583 1584
1559 1558 1559 1560 1561 1564 1565 1565 1565 1567 1569 1571 1570 1571 1574 1575 1575 1576 1576 1576 1576 1578 1578 1578 1579 1579 1580 1580 1582 1582 1582 1583 1584
1558 1558 1559 1560 1562 1563 1564 1564 1566 1567 1569 1571 1571 1572 1574 1575 1575 1576 1576 1576 1577 1577 1577 1578 1578 1579 1580 1581 1581 1582 1582 1583 1583
1559 1559 1560 1560 1562 1563 1564 1564 1566 1567 1569 1570 1572 1572 1573 1574 1575 1576 1576 1576 1577 1577 1577 1578 1578 1579 1579 1580 1581 1582 1582 1583 1583
1558 1559 1560 1561 1562 1562 1563 1565 1566 1568 1569 1570 1571 1571 1573 1574 1575 1576 1576 1576 1576 1576 1576 1577 1577 1578 1579 1579 1580 1581 1582 1582 1583
1557 1559 1560 1561 1561 1563 1563 1565 1566 1567 1567 1568 1569 1570 1571 1573 1574 1575 1576 1575 1575 1576 1576 1577 1577 1578 1578 1578 1579 1580 1581 1581 1582
1556 1558 1560 1561 1562 1563 1563 1564 1564 1565 1565 1566 1567 1569 1570 1572 1572 1573 1574 1575 1575 1576 1576 1576 1576 1577 1577 1578 1578 1579 1579 1580 1581
1555 1557 1558 1560 1560 1562 1562 1563 1563 1564 1563 1564 1565 1567 1569 1570 1571 1571 1573 1573 1574 1575 1575 1575 1576 1576 1577 1576 1577 1577 1578 1579 1579
1555 1556 1556 1558 1559 1561 1561 1562 1562 1562 1562 1562 1564 1565 1566 1568 1568 1570 1571 1571 1572 1572 1573 1574 1575 1576 1576 1576 1575 1575 1576 1577 1577
1554 1555 1555 1556 1557 1558 1559 1559 1559 1560 1561 1561 1562 1563 1564 1565 1566 1566 1567 1568 1569 1570 1571 1572 1573 1574 1575 1575 1574 1574 1575 1576 1577
1552 1553 1553 1554 1555 1555 1555 1556 1557 1557 1558 1559 1560 1560 1560 1561 1561 1562 1563 1565 1566 1567 1568 1568 1569 1571 1572 1573 1574 1573 1574 1574 1575
1549 1549 1549 1551 1552 1553 1554 1554 1555 1555 1556 1557 1558 1556 1556 1556 1556 1557 1558 1559 1561 1562 1563 1564 1565 1567 1568 1570 1571 1571 1572 1573 1573
1548 1548 1549 1549 1549 1549 1551 1552 1552 1553 1554 1555 1556 1556 1553 1552 1551 1551 1552 1554 1554 1556 1557 1558 1560 1562 1564 1566 1567 1568 1569 1570 1571
1546 1546 1546 1547 1547 1547 1548 1548 1549 1550 1550 1552 1552 1552 1552 1552 1550 1548 1549 1549 1548 1549 1551 1552 1554 1556 1558 1561 1563 1564 1565 1567 1568
1544 1545 1544 1544 1543 1543 1544 1544 1545 1546 1546 1547 1548 1549 1548 1548 1548 1545 1545 1545 1545 1545 1544 1545 1546 1548 1552 1554 1557 1559 1560 1562 1563